星链-1396 (STARLINK-1396 )

导读 | 星芒AI

STARLINK-1396 是 SpaceX Starlink 项目中的一颗低轨通信卫星,属于第 13 批部署的星链卫星群。该卫星于 2021 年 11 月发射,运行在约 550 公里的轨道高度,旨在为全球用户提供高速互联网服务。它采用先进的相控阵天线和激光通信技术,支持低延迟、高带宽的通信连接。作为星链系统的一部分,STARLINK-1396 有助于扩大卫星互联网覆盖范围,特别是在偏远和网络基础设施薄弱的地区。

基本信息
目录编号:
45681
目录名称:
STARLINK-1396
国际标识:
2020-035AA
轨道中心:
EARTH
卫星名称:
星链-1396
卫星全名:
星链-1396 (STARLINK-1396 )
卫星状态:
已陨落 最后检测时间 2024-07-06
发射日期:
2020-06-04 UTC
国别 :
美国 (US)
星等 :
--
轨道信息
数据来源 国际轨道数据
星历时间: 2024-07-07T01:53:04+0800
轨道信息已过期484天
半长轴: 6549.399km
偏心率: 0.0005246
轨道倾角: 53.014°
近地点辐角 322.108°
升交点赤经 229.748°
平近点角 52.932°
近地点: 167.828km
远地点: 174.7km
周期: 87.915分钟
每日圈数: 16.3795
详细信息
固有亮度:
5
最大亮度:
2.5
卫星平台:
Starlink V1.0
覆盖范围:
全球
运营商:
太空探索技术公司
运营商所在国:
美国
制造商(研发单位):
太空探索技术公司
制造商所在国:
美国
使用方式:
暂无
卫星简介
星链(Starlink)计划是由太空探索技术公司(SpaceX)提出的一个巨型低轨卫星互联网星座项目,计划在2019年至2024年间在太空搭建由约1.2万颗卫星组成的“星链”网络,其中1584颗将部署在地球上空550千米处的近地轨道,并从2020年开始工作。该卫星仍在工作。